Powrót do katalogu

STARLINK-35528

AktywnyŁącznośćVLEO
NORAD 66094·PAYLOAD·🇺🇸 United States

Wystrzelony Oct 19, 2025 z Vandenberg Space Force Base

Loading…

Następne Przeloty (najbliższe 24 godziny)

TLE

ŚwieżeSource: CelesTrak SupGP

Epoka: Sep 14, 2026, 21:14 UTC

1 66094C 25236J   26257.88520833  .00009485  00000+0  28030-3 0  2570
2 66094  53.1589 303.8860 0001178  75.4654  85.7972 15.34379212    10

Śledź STARLINK-35528 w czasie rzeczywistym z AllMySat

Download on the App Store